| time (UTC) | temp F | wind direction | speed MPH | gust MPH | rain 1hr in | rain 24hr in | rain mn in | humidity % | barometer mb |
| 20260505140500 | 75 | 181 | 5.0 | 11.0 | 0.00 | 0.00 | 0.00 | 83 | 1008.1 |
| 20260505124514 | 72 | 175 | 2.0 | 6.0 | 0.00 | 0.00 | 0.00 | 86 | 1007.8 |
| 20260505124000 | 72 | 164 | 2.0 | 6.0 | 0.00 | 0.00 | 0.00 | 87 | 1008.0 |
| 20260505123025 | 72 | 189 | 2.0 | 7.0 | 0.00 | 0.00 | 0.00 | 87 | 1008.0 |
| 20260505122001 | 72 | 194 | 2.0 | 5.0 | 0.00 | 0.00 | 0.00 | 87 | 1007.9 |
| 20260505121515 | 71 | 184 | 2.0 | 5.0 | 0.00 | 0.00 | 0.00 | 87 | 1008.0 |
| 20260505121001 | 71 | 168 | 2.0 | 7.0 | 0.00 | 0.00 | 0.00 | 87 | 1007.9 |
| 20260505120501 | 71 | 180 | 2.0 | 7.0 | 0.00 | 0.00 | 0.00 | 87 | 1007.7 |
| 20260505120023 | 71 | 170 | 2.0 | 7.0 | 0.00 | 0.00 | 0.00 | 87 | 1007.6 |
| 20260505115459 | 71 | 206 | 2.0 | 6.0 | 0.00 | 0.00 | 0.00 | 87 | 1007.6 |
| 20260505114513 | 71 | 162 | 2.0 | 4.0 | 0.00 | 0.00 | 0.00 | 87 | 1007.4 |
| 20260505114000 | 71 | 170 | 1.0 | 3.0 | 0.00 | 0.00 | 0.00 | 87 | 1007.6 |
| 20260505113459 | 71 | 180 | 1.0 | 5.0 | 0.00 | 0.00 | 0.00 | 87 | 1007.8 |
| 20260505113023 | 71 | 164 | 2.0 | 5.0 | 0.00 | 0.00 | 0.00 | 87 | 1008.0 |
| 20260505111959 | 71 | 124 | 2.0 | 4.0 | 0.00 | 0.00 | 0.00 | 87 | 1007.7 |
| 20260505111000 | 70 | 188 | 1.0 | 7.0 | 0.00 | 0.00 | 0.00 | 87 | 1007.7 |
| 20260505110501 | 70 | 207 | 1.0 | 5.0 | 0.00 | 0.00 | 0.00 | 87 | 1007.6 |
| 20260505102001 | 70 | 177 | 1.0 | 3.0 | 0.00 | 0.00 | 0.00 | 87 | 1007.8 |
| 20260505101514 | 70 | 124 | 1.0 | 3.0 | 0.00 | 0.00 | 0.00 | 87 | 1007.6 |
| 20260505100459 | 70 | 171 | 1.0 | 2.0 | 0.00 | 0.00 | 0.00 | 86 | 1007.8 |
| 20260505100021 | 70 | 179 | 1.0 | 2.0 | 0.00 | 0.00 | 0.00 | 86 | 1007.9 |
| 20260505095457 | 70 | 169 | 1.0 | 2.0 | 0.00 | 0.00 | 0.00 | 86 | 1008.0 |
| 20260505094958 | 70 | 198 | 1.0 | 4.0 | 0.00 | 0.00 | 0.00 | 86 | 1007.9 |
| 20260505094513 | 70 | 195 | 1.0 | 4.0 | 0.00 | 0.00 | 0.00 | 86 | 1007.8 |
| 20260505093959 | 70 | 189 | 2.0 | 5.0 | 0.00 | 0.00 | 0.00 | 86 | 1007.7 |
| 20260505093458 | 70 | 193 | 2.0 | 5.0 | 0.00 | 0.00 | 0.00 | 86 | 1007.8 |
| 20260505093024 | 70 | 193 | 2.0 | 4.0 | 0.00 | 0.00 | 0.00 | 86 | 1007.8 |
| 20260505092458 | 70 | 175 | 1.0 | 4.0 | 0.00 | 0.00 | 0.00 | 85 | 1007.7 |
| 20260505091513 | 70 | 174 | 2.0 | 4.0 | 0.00 | 0.00 | 0.00 | 85 | 1008.0 |
| 20260505090959 | 70 | 156 | 1.0 | 4.0 | 0.00 | 0.00 | 0.00 | 85 | 1008.1 |
| 20260505090457 | 70 | 179 | 1.0 | 3.0 | 0.00 | 0.00 | 0.00 | 85 | 1008.1 |
| 20260505090024 | 70 | 185 | 1.0 | 3.0 | 0.00 | 0.00 | 0.00 | 85 | 1008.2 |
| 20260505085459 | 70 | 212 | 1.0 | 3.0 | 0.00 | 0.00 | 0.00 | 85 | 1008.1 |
| 20260505085000 | 70 | 142 | 1.0 | 4.0 | 0.00 | 0.00 | 0.00 | 85 | 1008.1 |
| 20260505084514 | 70 | 164 | 1.0 | 4.0 | 0.00 | 0.00 | 0.00 | 85 | 1008.1 |
| 20260505084000 | 70 | 181 | 1.0 | 4.0 | 0.00 | 0.00 | 0.00 | 85 | 1008.0 |
| 20260505083458 | 70 | 162 | 1.0 | 4.0 | 0.00 | 0.00 | 0.00 | 85 | 1008.2 |
| 20260505082459 | 70 | 205 | 1.0 | 4.0 | 0.00 | 0.00 | 0.00 | 84 | 1008.3 |
| 20260505082001 | 70 | 169 | 1.0 | 4.0 | 0.00 | 0.00 | 0.00 | 84 | 1008.3 |
| 20260505081513 | 70 | 180 | 1.0 | 4.0 | 0.00 | 0.00 | 0.00 | 84 | 1008.4 |
| 20260505080458 | 70 | 162 | 2.0 | 6.0 | 0.00 | 0.00 | 0.00 | 84 | 1008.4 |
| 20260505080025 | 70 | 187 | 2.0 | 7.0 | 0.00 | 0.00 | 0.00 | 84 | 1008.5 |
| 20260505075459 | 70 | 131 | 1.0 | 7.0 | 0.00 | 0.00 | 0.00 | 83 | 1008.5 |
| 20260505075000 | 70 | 158 | 2.0 | 6.0 | 0.00 | 0.00 | 0.00 | 83 | 1008.6 |
| 20260505074514 | 70 | 163 | 2.0 | 6.0 | 0.00 | 0.00 | 0.00 | 83 | 1008.6 |
| 20260505073959 | 71 | 193 | 2.0 | 6.0 | 0.00 | 0.00 | 0.00 | 83 | 1008.6 |
| 20260505073459 | 70 | 168 | 2.0 | 9.0 | 0.00 | 0.00 | 0.00 | 83 | 1008.6 |
| 20260505073023 | 71 | 142 | 2.0 | 9.0 | 0.00 | 0.00 | 0.00 | 82 | 1008.6 |
| 20260505071959 | 71 | 173 | 2.0 | 5.0 | 0.00 | 0.00 | 0.00 | 82 | 1008.7 |
| 20260505071514 | 71 | 148 | 3.0 | 7.0 | 0.00 | 0.00 | 0.00 | 82 | 1008.8 |
| 20260505070458 | 71 | 161 | 2.0 | 7.0 | 0.00 | 0.00 | 0.00 | 82 | 1008.8 |
| 20260505070025 | 71 | 161 | 2.0 | 6.0 | 0.00 | 0.00 | 0.00 | 82 | 1008.8 |
| 20260505065458 | 71 | 187 | 3.0 | 7.0 | 0.00 | 0.00 | 0.00 | 82 | 1008.8 |
| 20260505064958 | 71 | 179 | 3.0 | 9.0 | 0.00 | 0.00 | 0.00 | 81 | 1008.9 |
| 20260505064512 | 71 | 166 | 3.0 | 9.0 | 0.00 | 0.00 | 0.00 | 81 | 1008.9 |
| 20260505063958 | 71 | 112 | 3.0 | 7.0 | 0.00 | 0.00 | 0.00 | 81 | 1009.0 |
| 20260505063458 | 71 | 245 | 3.0 | 6.0 | 0.00 | 0.00 | 0.00 | 81 | 1009.1 |
| 20260505063023 | 71 | 145 | 3.0 | 8.0 | 0.00 | 0.00 | 0.00 | 81 | 1009.1 |
| 20260505062458 | 71 | 152 | 3.0 | 10.0 | 0.00 | 0.00 | 0.00 | 81 | 1009.3 |
| 20260505061958 | 71 | 173 | 3.0 | 10.0 | 0.00 | 0.00 | 0.00 | 81 | 1009.4 |
| 20260505061513 | 71 | 164 | 2.0 | 8.0 | 0.00 | 0.00 | 0.00 | 80 | 1009.4 |
| 20260505061000 | 71 | 162 | 3.0 | 8.0 | 0.00 | 0.00 | 0.00 | 80 | 1009.6 |
| 20260505060458 | 71 | 183 | 2.0 | 8.0 | 0.00 | 0.00 | 0.00 | 80 | 1009.6 |
| 20260505060024 | 71 | 200 | 2.0 | 5.0 | 0.00 | 0.00 | 0.00 | 80 | 1009.6 |
| 20260505055501 | 71 | 68 | 2.0 | 6.0 | 0.00 | 0.00 | 0.00 | 80 | 1009.5 |
| 20260505055002 | 71 | 135 | 2.0 | 6.0 | 0.00 | 0.00 | 0.00 | 80 | 1009.5 |
| 20260505054517 | 71 | 166 | 2.0 | 6.0 | 0.00 | 0.00 | 0.00 | 79 | 1009.4 |
| 20260505053025 | 71 | 165 | 2.0 | 6.0 | 0.00 | 0.00 | 0.00 | 79 | 1009.6 |
| 20260505052502 | 71 | 170 | 2.0 | 6.0 | 0.00 | 0.00 | 0.00 | 79 | 1009.7 |
| 20260505052003 | 71 | 173 | 2.0 | 7.0 | 0.00 | 0.00 | 0.00 | 79 | 1009.8 |
| 20260505051516 | 71 | 204 | 2.0 | 8.0 | 0.00 | 0.00 | 0.00 | 79 | 1009.9 |
| 20260505041518 | 72 | 145 | 2.0 | 7.0 | 0.00 | 0.00 | 0.00 | 76 | 1009.8 |
| 20260505041004 | 72 | 171 | 3.0 | 8.0 | 0.00 | 0.00 | 0.00 | 76 | 1009.8 |
| 20260505040503 | 72 | 169 | 4.0 | 9.0 | 0.00 | 0.00 | 0.00 | 76 | 1009.8 |
| 20260505040025 | 72 | 125 | 3.0 | 9.0 | 0.00 | 0.00 | 0.00 | 76 | 1010.0 |
| 20260505035503 | 72 | 176 | 3.0 | 10.0 | 0.00 | 0.00 | 0.00 | 76 | 1010.1 |
| 20260505035004 | 72 | 154 | 3.0 | 10.0 | 0.00 | 0.00 | 0.00 | 76 | 1010.0 |
| 20260505034517 | 72 | 206 | 3.0 | 9.0 | 0.00 | 0.00 | 0.00 | 76 | 1010.0 |
| 20260505034003 | 72 | 194 | 3.0 | 8.0 | 0.00 | 0.00 | 0.00 | 75 | 1010.3 |
| 20260505033502 | 72 | 204 | 4.0 | 9.0 | 0.00 | 0.00 | 0.00 | 75 | 1010.3 |
| 20260505033027 | 72 | 161 | 4.0 | 9.0 | 0.00 | 0.00 | 0.00 | 75 | 1010.3 |
| 20260505032503 | 73 | 174 | 4.0 | 10.0 | 0.00 | 0.00 | 0.00 | 75 | 1010.3 |
| 20260505032003 | 73 | 164 | 3.0 | 10.0 | 0.00 | 0.00 | 0.00 | 75 | 1010.2 |
| 20260505031517 | 73 | 223 | 3.0 | 7.0 | 0.00 | 0.00 | 0.00 | 74 | 1010.1 |
| 20260505031004 | 73 | 175 | 4.0 | 11.0 | 0.00 | 0.00 | 0.00 | 74 | 1010.1 |
| 20260505030503 | 73 | 156 | 4.0 | 11.0 | 0.00 | 0.00 | 0.00 | 74 | 1010.1 |
| 20260505030027 | 73 | 175 | 4.0 | 11.0 | 0.00 | 0.00 | 0.00 | 74 | 1010.1 |
| 20260505025503 | 73 | 199 | 5.0 | 10.0 | 0.00 | 0.00 | 0.00 | 74 | 1010.1 |
| 20260505025004 | 73 | 187 | 4.0 | 10.0 | 0.00 | 0.00 | 0.00 | 74 | 1010.1 |
| 20260505024517 | 73 | 179 | 4.0 | 10.0 | 0.00 | 0.00 | 0.00 | 74 | 1010.1 |
| 20260505024004 | 73 | 182 | 3.0 | 10.0 | 0.00 | 0.00 | 0.00 | 74 | 1010.2 |
| 20260505023503 | 73 | 148 | 2.0 | 10.0 | 0.00 | 0.00 | 0.00 | 73 | 1010.1 |
| 20260505023026 | 73 | 135 | 3.0 | 10.0 | 0.00 | 0.00 | 0.00 | 73 | 1010.1 |
| 20260505022502 | 73 | 147 | 5.0 | 10.0 | 0.00 | 0.00 | 0.00 | 73 | 1010.0 |
| 20260505022005 | 74 | 185 | 4.0 | 14.0 | 0.00 | 0.00 | 0.00 | 73 | 1009.8 |
| 20260505021007 | 74 | 148 | 4.0 | 8.0 | 0.00 | 0.00 | 0.00 | 72 | 1009.9 |
| 20260505020028 | 74 | 178 | 4.0 | 8.0 | 0.00 | 0.00 | 0.00 | 72 | 1009.7 |
| 20260505015504 | 74 | 156 | 4.0 | 8.0 | 0.00 | 0.00 | 0.00 | 72 | 1009.8 |
| 20260505015009 | 74 | 165 | 4.0 | 11.0 | 0.00 | 0.00 | 0.00 | 72 | 1009.8 |
| 20260505014517 | 75 | 195 | 5.0 | 14.0 | 0.00 | 0.00 | 0.00 | 71 | 1009.7 |
| 20260505014009 | 75 | 231 | 4.0 | 14.0 | 0.00 | 0.00 | 0.00 | 71 | 1009.7 |
| 20260505013504 | 75 | 199 | 3.0 | 9.0 | 0.00 | 0.00 | 0.00 | 71 | 1009.7 |
| 20260505013026 | 75 | 243 | 4.0 | 10.0 | 0.00 | 0.00 | 0.00 | 71 | 1009.5 |
| 20260505012502 | 75 | 176 | 4.0 | 10.0 | 0.00 | 0.00 | 0.00 | 70 | 1009.5 |
| 20260505012005 | 75 | 129 | 3.0 | 8.0 | 0.00 | 0.00 | 0.00 | 70 | 1009.4 |
| 20260505011519 | 75 | 158 | 3.0 | 8.0 | 0.00 | 0.00 | 0.00 | 70 | 1009.4 |
| 20260505011011 | 75 | 141 | 4.0 | 8.0 | 0.00 | 0.00 | 0.00 | 70 | 1009.5 |
| 20260505010504 | 75 | 156 | 3.0 | 8.0 | 0.00 | 0.00 | 0.00 | 70 | 1009.5 |
| 20260505005501 | 75 | 151 | 4.0 | 10.0 | 0.00 | 0.00 | 0.00 | 70 | 1009.5 |
| 20260505005004 | 76 | 157 | 3.0 | 9.0 | 0.00 | 0.00 | 0.00 | 70 | 1009.5 |
| 20260505004516 | 76 | 147 | 4.0 | 9.0 | 0.00 | 0.00 | 0.00 | 70 | 1009.5 |
| 20260505004008 | 76 | 179 | 4.0 | 12.0 | 0.00 | 0.00 | 0.00 | 70 | 1009.4 |
| 20260505003502 | 76 | 149 | 2.0 | 12.0 | 0.00 | 0.00 | 0.00 | 70 | 1009.3 |
| 20260505003019 | 76 | 135 | 2.0 | 6.0 | 0.00 | 0.00 | 0.00 | 70 | 1009.3 |
| 20260505002501 | 76 | 146 | 3.0 | 9.0 | 0.00 | 0.00 | 0.00 | 70 | 1009.4 |
| 20260505002004 | 76 | 220 | 3.0 | 9.0 | 0.00 | 0.00 | 0.00 | 69 | 1009.3 |
| 20260505001516 | 76 | 159 | 4.0 | 9.0 | 0.00 | 0.00 | 0.00 | 69 | 1009.3 |
| 20260505001011 | 76 | 89 | 4.0 | 10.0 | 0.00 | 0.00 | 0.00 | 68 | 1009.4 |
| 20260505000502 | 76 | 102 | 4.0 | 11.0 | 0.00 | 0.00 | 0.00 | 68 | 1009.5 |
| 20260505000025 | 76 | 180 | 3.0 | 11.0 | 0.00 | 0.00 | 0.00 | 68 | 1009.5 |
| 20260504235501 | 77 | 167 | 3.0 | 7.0 | 0.00 | 0.00 | 0.00 | 68 | 1009.4 |
| 20260504235006 | 77 | 178 | 4.0 | 9.0 | 0.00 | 0.00 | 0.00 | 68 | 1009.4 |
| 20260504234005 | 77 | 139 | 4.0 | 13.0 | 0.00 | 0.00 | 0.00 | 67 | 1009.7 |
| 20260504233502 | 77 | 136 | 4.0 | 13.0 | 0.00 | 0.00 | 0.00 | 67 | 1009.8 |
| 20260504233025 | 77 | 212 | 4.0 | 12.0 | 0.00 | 0.00 | 0.00 | 67 | 1009.7 |
| 20260504232502 | 78 | 202 | 4.0 | 12.0 | 0.00 | 0.00 | 0.00 | 66 | 1009.8 |
| 20260504231517 | 78 | 288 | 5.0 | 14.0 | 0.00 | 0.00 | 0.00 | 66 | 1009.9 |
| 20260504231002 | 78 | 125 | 5.0 | 13.0 | 0.00 | 0.00 | 0.00 | 66 | 1009.8 |
| 20260504230501 | 78 | 191 | 5.0 | 13.0 | 0.00 | 0.00 | 0.00 | 66 | 1010.0 |
| 20260504230028 | 78 | 149 | 4.0 | 11.0 | 0.00 | 0.00 | 0.00 | 65 | 1010.0 |
| 20260504225501 | 78 | 194 | 5.0 | 9.0 | 0.00 | 0.00 | 0.00 | 66 | 1009.9 |
| 20260504224002 | 79 | 267 | 4.0 | 11.0 | 0.00 | 0.00 | 0.00 | 66 | 1010.1 |
| 20260504223502 | 79 | 179 | 4.0 | 10.0 | 0.00 | 0.00 | 0.00 | 64 | 1010.1 |
| 20260504223028 | 79 | 166 | 4.0 | 10.0 | 0.00 | 0.00 | 0.00 | 64 | 1010.2 |
| 20260504222501 | 79 | 187 | 4.0 | 9.0 | 0.00 | 0.00 | 0.00 | 64 | 1010.1 |
| 20260504222003 | 79 | 135 | 4.0 | 10.0 | 0.00 | 0.00 | 0.00 | 63 | 1010.1 |
| 20260504221517 | 79 | 202 | 4.0 | 11.0 | 0.00 | 0.00 | 0.00 | 62 | 1010.4 |
| 20260504221002 | 79 | 218 | 4.0 | 11.0 | 0.00 | 0.00 | 0.00 | 61 | 1010.4 |
| 20260504220502 | 79 | 158 | 4.0 | 9.0 | 0.00 | 0.00 | 0.00 | 62 | 1010.4 |
| 20260504220027 | 79 | 176 | 4.0 | 14.0 | 0.00 | 0.00 | 0.00 | 61 | 1010.3 |
| 20260504215502 | 79 | 176 | 4.0 | 11.0 | 0.00 | 0.00 | 0.00 | 60 | 1010.5 |
| 20260504215003 | 80 | 212 | 4.0 | 14.0 | 0.00 | 0.00 | 0.00 | 60 | 1010.5 |
| 20260504214517 | 80 | 148 | 4.0 | 14.0 | 0.00 | 0.00 | 0.00 | 59 | 1010.6 |
| 20260504213501 | 80 | 187 | 4.0 | 11.0 | 0.00 | 0.00 | 0.00 | 59 | 1010.7 |
| 20260504213026 | 80 | 183 | 3.0 | 11.0 | 0.00 | 0.00 | 0.00 | 60 | 1010.7 |
| 20260504212502 | 80 | 158 | 3.0 | 11.0 | 0.00 | 0.00 | 0.00 | 59 | 1010.7 |
| 20260504211516 | 81 | 195 | 4.0 | 9.0 | 0.00 | 0.00 | 0.00 | 58 | 1011.0 |
| 20260504211003 | 81 | 195 | 3.0 | 10.0 | 0.00 | 0.00 | 0.00 | 57 | 1010.9 |
| 20260504210503 | 81 | 185 | 3.0 | 8.0 | 0.00 | 0.00 | 0.00 | 59 | 1011.0 |
| 20260504210033 | 81 | 161 | 3.0 | 11.0 | 0.00 | 0.00 | 0.00 | 57 | 1010.9 |
| 20260504205501 | 81 | 196 | 4.0 | 11.0 | 0.00 | 0.00 | 0.00 | 57 | 1011.0 |
| 20260504205002 | 82 | 204 | 4.0 | 9.0 | 0.00 | 0.00 | 0.00 | 56 | 1011.2 |
| 20260504204516 | 82 | 152 | 4.0 | 9.0 | 0.00 | 0.00 | 0.00 | 56 | 1011.3 |
| 20260504204001 | 82 | 161 | 4.0 | 10.0 | 0.00 | 0.00 | 0.00 | 57 | 1011.3 |
| 20260504203024 | 81 | 179 | 4.0 | 10.0 | 0.00 | 0.00 | 0.00 | 56 | 1011.4 |
| 20260504202501 | 81 | 207 | 4.0 | 10.0 | 0.00 | 0.00 | 0.00 | 57 | 1011.5 |
| 20260504202000 | 81 | 104 | 4.0 | 10.0 | 0.00 | 0.00 | 0.00 | 58 | 1011.7 |
| 20260504201515 | 82 | 183 | 3.0 | 10.0 | 0.00 | 0.00 | 0.00 | 56 | 1011.8 |
| 20260504200500 | 81 | 156 | 3.0 | 12.0 | 0.00 | 0.00 | 0.00 | 57 | 1011.9 |
| 20260504200026 | 80 | 202 | 3.0 | 12.0 | 0.00 | 0.00 | 0.00 | 57 | 1012.1 |
| 20260504195502 | 80 | 162 | 3.0 | 11.0 | 0.00 | 0.00 | 0.00 | 57 | 1012.1 |
| 20260504195002 | 80 | 156 | 4.0 | 8.0 | 0.00 | 0.00 | 0.00 | 58 | 1012.2 |
| 20260504194517 | 80 | 134 | 4.0 | 7.0 | 0.00 | 0.00 | 0.00 | 56 | 1012.2 |
| 20260504194004 | 81 | 160 | 3.0 | 10.0 | 0.00 | 0.00 | 0.00 | 56 | 1012.1 |
| 20260504193503 | 82 | 108 | 3.0 | 10.0 | 0.00 | 0.00 | 0.00 | 59 | 1012.3 |
| 20260504193027 | 82 | 186 | 3.0 | 9.0 | 0.00 | 0.00 | 0.00 | 55 | 1012.4 |
| 20260504192501 | 82 | 270 | 3.0 | 8.0 | 0.00 | 0.00 | 0.00 | 56 | 1012.3 |
| 20260504192004 | 82 | 244 | 3.0 | 10.0 | 0.00 | 0.00 | 0.00 | 55 | 1012.4 |
| 20260504191516 | 81 | 122 | 3.0 | 10.0 | 0.00 | 0.00 | 0.00 | 60 | 1012.5 |
| 20260504191002 | 80 | 260 | 4.0 | 11.0 | 0.00 | 0.00 | 0.00 | 56 | 1012.5 |
| 20260504190026 | 80 | 208 | 5.0 | 14.0 | 0.00 | 0.00 | 0.00 | 57 | 1012.7 |
| 20260504185500 | 80 | 274 | 4.0 | 9.0 | 0.00 | 0.00 | 0.00 | 57 | 1012.9 |
| 20260504185002 | 80 | 206 | 4.0 | 10.0 | 0.00 | 0.00 | 0.00 | 55 | 1013.0 |
| 20260504184515 | 80 | 156 | 4.0 | 11.0 | 0.00 | 0.00 | 0.00 | 56 | 1012.9 |
| 20260504184001 | 80 | 162 | 4.0 | 10.0 | 0.00 | 0.00 | 0.00 | 56 | 1013.0 |
| 20260504183500 | 80 | 173 | 4.0 | 11.0 | 0.00 | 0.00 | 0.00 | 56 | 1013.0 |
| 20260504181516 | 80 | 140 | 4.0 | 13.0 | 0.00 | 0.00 | 0.00 | 59 | 1013.1 |
| 20260504181001 | 80 | 177 | 4.0 | 13.0 | 0.00 | 0.00 | 0.00 | 59 | 1013.2 |
| 20260504180501 | 80 | 130 | 4.0 | 10.0 | 0.00 | 0.00 | 0.00 | 59 | 1013.4 |
| 20260504180026 | 79 | 179 | 4.0 | 11.0 | 0.00 | 0.00 | 0.00 | 60 | 1013.4 |
| 20260504175000 | 79 | 142 | 4.0 | 11.0 | 0.00 | 0.00 | 0.00 | 57 | 1013.6 |
| 20260504174515 | 80 | 179 | 4.0 | 11.0 | 0.00 | 0.00 | 0.00 | 57 | 1013.6 |
| 20260504174001 | 79 | 85 | 4.0 | 9.0 | 0.00 | 0.00 | 0.00 | 59 | 1013.7 |
| 20260504173500 | 78 | 217 | 5.0 | 12.0 | 0.00 | 0.00 | 0.00 | 59 | 1013.8 |
| 20260504173027 | 79 | 170 | 5.0 | 11.0 | 0.00 | 0.00 | 0.00 | 57 | 1013.8 |
| 20260504172000 | 78 | 158 | 4.0 | 11.0 | 0.00 | 0.00 | 0.00 | 59 | 1013.9 |
| 20260504171515 | 78 | 166 | 4.0 | 11.0 | 0.00 | 0.00 | 0.00 | 58 | 1014.2 |
| 20260504171001 | 78 | 141 | 4.0 | 11.0 | 0.00 | 0.00 | 0.00 | 59 | 1014.3 |